Location: D�pe
(52.6057°N, 8.1808°E)
Time: 06:49:49
(UTC+00:00)

Helios 1A Rocket - Pass Details

Date: 29 October 2020
Orbit: 563 x 586 km, 98.3° (Epoch: 01 December)

Event Time Altitude Azimuth Distance (km) Brightness Sun altitude
Rises 17:14:00 0° 150° (SSE) 2,795 6.2 -11.4°
Reaches altitude 10° 17:16:10 10° 146° (SE) 1,897 5.3 -11.7°
Maximum altitude 17:20:10 53° 69° (ENE) 717 3.0 -12.3°
Drops below altitude 10° 17:24:11 10° 353° (N) 1,898 5.6 -12.9°
Sets 17:26:22 0° 349° (NNW) 2,797 6.5 -13.2°
